Flag for Germany Weather past 2 weeks in Erfurt, Thuringia, Germany

39 °F

Partly sunny.

Feels Like: 29 °F
Forecast: 42 / 50 °F
Wind: 23 mph from Southwest

Location: Erfurt-Bindersleben

Current Time: Nov 29, 2015 at 10:08:06 AM

Latest Report: Nov 29, 2015 at 9:20 AM

Visibility: N/A

Pressure: 29.83 "Hg

Humidity: 87%

Dew point: 36 °F

Location of ErfurtLocation

Historic Weather in Erfurt — Graph


Erfurt temperature yesterday

Maximum temperature yesterday: 37 °F (at 1:20 PM)
Minimum temperature yesterday: 27 °F (at 12:50 AM)
Average temperature yesterday: 33 °F

Past Weeks' High & Low Weather Summary

High57 °F (Nov 17, 1:20 PM)100% (Nov 21, 10:20 PM)30.24 "Hg (Nov 21, 10:20 PM)
Low23 °F (Nov 27, 6:50 AM)58% (Nov 18, 11:50 AM)29.39 "Hg (Nov 21, 4:50 AM)
Average41 °F83%29.85 "Hg
* Reported Nov 14 8:20 AM — Nov 29 8:50 AM, Erfurt, Weather by CustomWeather, © 2015

Note: Actual official high and low records may vary slightly from our data, if they occured in-between our weather recording intervals... More about our weather records


Erfurt weather history for previous 24 hours

Time TempWeatherWind HumidityBarometerVisibility
8:50 AM
Sun, Nov 29
39 °FPartly sunny.23 mph81%29.83 "HgN/A
8:20 AM37 °FLight rain. Broken clouds.23 mph87%29.83 "HgN/A
7:50 AM37 °FLight rain. Partly cloudy.21 mph87%29.83 "HgN/A
7:20 AM37 °FLight rain. Partly cloudy.22 mph87%29.83 "HgN/A
6:20 AM37 °FLight rain. Partly cloudy.20 mph87%29.83 "HgN/A
5:50 AM37 °FLight rain. Passing clouds.18 mph87%29.83 "HgN/A
5:20 AM37 °FLight rain. Passing clouds.18 mph87%29.83 "HgN/A
4:50 AM37 °FLight rain. Passing clouds.22 mph87%29.83 "HgN/A
4:20 AM37 °FLight rain. Passing clouds.23 mph87%29.83 "HgN/A
3:50 AM37 °FLight rain. Passing clouds.25 mph81%29.83 "HgN/A
3:20 AM37 °FPassing clouds.24 mph81%29.83 "HgN/A
2:50 AM37 °FPassing clouds.25 mph81%29.86 "HgN/A
2:20 AM37 °FPassing clouds.26 mph81%29.86 "HgN/A
1:50 AM37 °FPassing clouds.20 mph75%29.86 "HgN/A
1:20 AM37 °FClear.20 mph75%29.89 "Hg10 mi
12:50 AM37 °FClear.17 mph75%29.89 "Hg10 mi
12:20 AM36 °FClear.20 mph81%29.92 "Hg10 mi
11:50 PM
Sat, Nov 28
36 °FClear.16 mph81%29.92 "Hg10 mi
11:20 PM36 °FClear.17 mph81%29.95 "Hg10 mi
10:50 PM36 °FClear.21 mph81%29.95 "Hg10 mi
10:20 PM36 °FClear.13 mph75%29.98 "Hg10 mi
9:20 PM36 °FClear.21 mph81%29.95 "Hg10 mi
8:50 PM36 °FClear.17 mph81%29.98 "Hg10 mi
8:20 PM36 °FClear.17 mph81%29.98 "Hg10 mi
7:50 PM36 °FClear.10 mph81%29.98 "Hg10 mi
7:20 PM34 °FClear.13 mph87%29.98 "Hg10 mi
6:50 PM34 °FClear.13 mph87%29.98 "Hg10 mi
6:20 PM34 °FClear.12 mph87%29.98 "Hg10 mi
5:50 PM36 °FClear.13 mph81%29.95 "Hg10 mi
5:20 PM36 °FClear.12 mph87%29.95 "Hg10 mi
4:50 PM36 °FClear.13 mph87%29.95 "Hg10 mi
4:20 PM36 °FPassing clouds.14 mph87%29.92 "HgN/A
3:50 PM36 °FPassing clouds.13 mph87%29.92 "HgN/A
3:20 PM37 °FPassing clouds.15 mph87%29.89 "HgN/A
2:50 PM37 °FPassing clouds.14 mph87%29.89 "HgN/A
2:20 PM37 °FScattered clouds.15 mph87%29.89 "HgN/A
1:50 PM37 °FPassing clouds.18 mph87%29.86 "HgN/A
1:20 PM37 °FScattered clouds.20 mph87%29.83 "HgN/A
12:50 PM36 °FPartly sunny.17 mph93%29.83 "HgN/A
12:20 PM36 °FDrizzle. Broken clouds.20 mph87%29.80 "HgN/A
11:50 AM36 °FDrizzle. Partly sunny.18 mph87%29.80 "HgN/A
11:20 AM36 °FBroken clouds.18 mph87%29.77 "HgN/A
10:50 AM34 °FLight snow. Partly sunny.13 mph93%29.77 "Hg6 mi
10:20 AM32 °FSnow. Overcast.18 mph93%29.77 "Hg1 mi
Weather by CustomWeather, © 2015

See weather overviewHow to use our weather pages